Home   Weather   Włocławek   Past weeks

Flag for Poland Past Weather in Włocławek, Poland — Yesterday and Last 2 Weeks

Now
47 °F

Fog.


Feels Like: 44 °F
Forecast: 24 / 43 °F
Wind: 7 mph from Northwest

Location: Plock

Current Time: Dec 11, 2016 at 1:37:49 am

Latest Report: Dec 11, 2016 at 12:00 am


Visibility: 4 mi

Pressure: 29.94 "Hg

Humidity: 89%

Dew Point: 44 °F

Location of WłocławekLocation

Past Weather in Włocławek — Graph

°F

Włocławek Temperature Yesterday

Maximum temperature yesterday: 50 °F (at 1:00 pm)
Minimum temperature yesterday: 45 °F (at 5:00 am)
Average temperature yesterday: 47 °F

High & Low Weather Summary for the Past Weeks

 TemperatureHumidityPressure
High50 °F (Dec 10, 1:00 pm)100% (Nov 26, 6:00 am)30.63 "Hg (Nov 26, 6:00 am)
Low24 °F (Nov 28, 7:00 pm)64% (Nov 30, 6:00 am)29.32 "Hg (Dec 2, 1:00 am)
Average35 °F89%30.09 "Hg
* Reported Nov 26 12:00 am — Dec 11 12:00 am, Włocławek, Weather by CustomWeather, © 2016

Note: Actual official high and low records may vary slightly from our data, if they occured in-between our weather recording intervals... More about our weather records

Advertising

Włocławek Weather History for the Previous 24 Hours

Scroll right to see more
 ConditionsComfort  
Time TempWeatherWind HumidityBarometerVisibility
12:00 am
Sun, Dec 11
47 °FFog.7 mph89%29.94 "Hg4 mi
11:00 pm
Sat, Dec 10
47 °FFog.6 mph92%29.95 "Hg3 mi
10:00 pm48 °FFog.8 mph90%29.94 "Hg4 mi
9:00 pm48 °FFog.8 mph91%29.93 "Hg4 mi
8:00 pm48 °FFog.8 mph91%29.93 "Hg3 mi
7:00 pm48 °FCool.8 mph93%29.93 "Hg4 mi
6:00 pm47 °FDrizzle. Overcast.7 mph94%29.93 "Hg1 mi
5:00 pm48 °FFog.8 mph93%29.92 "Hg3 mi
4:00 pm49 °FCool.9 mph93%29.90 "Hg4 mi
3:00 pm49 °FDrizzle. Cloudy.8 mph93%29.90 "Hg2 mi
2:00 pm50 °FDrizzle. Cloudy.5 mph93%29.90 "Hg2 mi
1:00 pm50 °FDrizzle. Cloudy.6 mph93%29.90 "Hg3 mi
12:00 pm49 °FLight rain. Cloudy.8 mph93%29.91 "Hg2 mi
11:00 am49 °FLight rain. Cloudy.9 mph93%29.92 "Hg2 mi
10:00 am49 °FCool.8 mph93%29.92 "Hg3 mi
9:00 am48 °FLight rain. Cloudy.7 mph95%29.93 "Hg2 mi
8:00 am46 °FDrizzle. Cloudy.8 mph96%29.92 "Hg2 mi
7:00 am45 °FLight rain. Overcast.7 mph96%29.94 "Hg3 mi
6:00 am45 °FLight rain. Overcast.7 mph95%29.98 "Hg2 mi
5:00 am45 °FLight rain. Overcast.7 mph94%30.01 "Hg2 mi
4:00 am45 °FFog.6 mph91%30.05 "Hg4 mi
3:00 am46 °FCool.7 mph85%30.07 "Hg7 mi
2:00 am46 °FCool.8 mph85%30.09 "Hg9 mi
1:00 am46 °FCool.6 mph83%30.08 "Hg7 mi
Weather by CustomWeather, © 2016

See weather overviewHow to use our weather pages